Regional Weather Roundup
Issued by NWS Cleveland, OH

Home | Current Version | Previous Version | Graphics & Text | Print | Product List | Glossary On
Versions: 1 2 3 4 5 6 7 8 9 10 11 12 13 14 15 16 17 18 19 20 21 22 23 24 25 26 27 28 29 30 31 32 33 34 35 36 37 38 39 40 41 42 43 44 45 46 47 48 49 50
512
ASUS41 KCLE 221912
RWRCLE
OHIO REGIONAL WEATHER ROUNDUP
NATIONAL WEATHER SERVICE WILMINGTON, OH
300 PM EDT SAT JUL 22 2017

NOTE: "FAIR" INDICATES FEW OR NO CLOUDS BELOW 12,000 FEET WITH NO
SIGNIFICANT WEATHER AND/OR OBSTRUCTIONS TO VISIBILITY.

OHZ001>008-015>018-024>027-034-035-043-044-222000-
   NORTHWEST OHIO

CITY           SKY/WX    TMP DP  RH WIND       PRES   REMARKS
DEFIANCE       PTSUNNY  N/A N/A N/A W8        29.79F
FINDLAY        FAIR      82  73  74 SW12      29.79F
TOLEDO EXPRESS PTSUNNY   81  73  76 SW14      29.78F
TOLEDO EXEC    FAIR      83  72  69 SW13      29.78F
LIMA           PTSUNNY   81  75  82 W9        29.82F
$$

OHZ009>014-019>023-028>033-038-089-222000-
   NORTHEAST OHIO

CITY           SKY/WX    TMP DP  RH WIND       PRES   REMARKS
CLE-HOPKINS    CLOUDY    80  72  76 S12       29.82F
CLE-LAKEFRONT  PTSUNNY   80  70  71 SW8       29.79F
CUY CO. ARPT   PTSUNNY   79  68  69 W7        29.83R
LORAIN-ELYRIA  CLOUDY    77  69  76 SW8       29.81F
ASHTABULA      PTSUNNY   75  72  90 S5        29.83R
AKRON-CANTON   CLOUDY    78  71  79 SW13      29.84F
WOOSTER        PTSUNNY   76  72  87 SW8       29.83F
MANSFIELD      CLOUDY    76  72  87 S8        29.84F
YOUNGSTOWN     CLOUDY    74  71  91 SW10      29.84S
$$

OHZ042-051>053-060>062-070>072-077>081-222000-
  SOUTHWEST OHIO

CITY           SKY/WX    TMP DP  RH WIND       PRES   REMARKS
CINC-COVINGTON PTSUNNY   88  77  69 S12       29.81F HX 100
CINC-LUNKEN    FAIR      89  76  65 SW12G21   29.79F HX 100
HAMILTON       FAIR      89  77  67 SW6       29.81S HX 101
DAYTON         LGT RAIN  85  75  72 W12       29.83F HX  93
WRIGHT-PAT AFB PTSUNNY   87  77  72 W9        29.81F HX  99
DAYTON GENERAL FAIR      89  74  60 SW10      29.81F HX  98
WILMINGTON     FAIR      88  76  67 W14G22    29.83F HX  99
$$

OHZ036-037-039>041-045>050-054>059-063>069-073>076-082>088-222000-
  CENTRAL AND SOUTHEAST OHIO

CITY           SKY/WX    TMP DP  RH WIND       PRES   REMARKS
COLUMBUS       CLOUDY    82  77  84 S7        29.82F HX  90
OSU AIRPORT    PTSUNNY   84  78  82 SW8       29.83F HX  95
BOLTON FIELD   MOSUNNY   84  79  84 S3        29.83F HX  96
RICKENBACK AFB FAIR      83  79  87 CALM      29.81F HX  93
NEWARK         PTSUNNY   81  74  79 S6        29.83F
MARION         FAIR      78  73  84 SW8       29.84S
LANCASTER      PTSUNNY   81  79  94 CALM      29.84F HX  90
ZANESVILLE     CLOUDY    78  73  84 S6        29.85F
NEW PHILLY     PTSUNNY   75  71  87 CALM      29.85F
$$




USA.gov is the U.S. government's official web portal to all federal, state and local government web resources and services.